• en France
  • Liste des pays
  • À 7 jours
  • Température de l'eau
  • Carte satellitaire
  • Carte météo
  • Widgets météo
  • user-avatar
    Se connecter

    Météo par heure à Choroda

    Ce jour, 21 Août, Mardi

    Heure Température Précipitation Vent Pression Humidité
    00:00 +12°C° 0 mm 2 m/s 632 mmHg 84%
    01:00 +12°C° 0 mm 2 m/s 632 mmHg 83%
    02:00 +12°C° 0 mm 2 m/s 632 mmHg 81%
    03:00 +12°C° 0 mm 2 m/s 632 mmHg 82%
    04:00 +12°C° 0 mm 2 m/s 632 mmHg 81%
    05:00 +12°C° 0 mm 2 m/s 632 mmHg 80%
    06:00 +12°C° 0 mm 2 m/s 632 mmHg 79%
    07:00 +15°C° 0 mm 2 m/s 633 mmHg 71%
    08:00 +17°C° 0 mm 2 m/s 634 mmHg 64%
    09:00 +19°C° 0 mm 2 m/s 634 mmHg 56%
    10:00 +20°C° 0 mm 2 m/s 635 mmHg 54%
    11:00 +21°C° 0 mm 2 m/s 635 mmHg 53%
    12:00 +23°C° 0 mm 2 m/s 635 mmHg 51%
    13:00 +23°C° 0,3 mm 2 m/s 635 mmHg 53%
    14:00 +23°C° 0,3 mm 2 m/s 634 mmHg 56%
    15:00 +23°C° 0,3 mm 2 m/s 634 mmHg 58%
    16:00 +21°C° 0,2 mm 2 m/s 634 mmHg 63%
    17:00 +20°C° 0,2 mm 2 m/s 633 mmHg 68%
    18:00 +20°C° 0,2 mm 1 m/s 633 mmHg 74%
    19:00 +18°C° 0 mm 1 m/s 632 mmHg 76%
    20:00 +16°C° 0 mm 1 m/s 632 mmHg 78%
    21:00 +14°C° 0 mm 2 m/s 632 mmHg 81%
    22:00 +14°C° 0 mm 2 m/s 631 mmHg 78%
    23:00 +14°C° 0 mm 2 m/s 631 mmHg 75%

    Demain, 22 Août, Mercredi

    Heure Température Précipitation Vent Pression Humidité
    00:00 +14°C° 0 mm 2 m/s 631 mmHg 73%
    01:00 +14°C° 0 mm 2 m/s 631 mmHg 69%
    02:00 +13°C° 0 mm 2 m/s 631 mmHg 66%
    03:00 +13°C° 0 mm 2 m/s 631 mmHg 63%
    04:00 +14°C° 0 mm 2 m/s 631 mmHg 62%
    05:00 +14°C° 0 mm 2 m/s 631 mmHg 62%
    06:00 +15°C° 0 mm 1 m/s 632 mmHg 61%
    07:00 +16°C° 0,1 mm 1 m/s 632 mmHg 58%
    08:00 +19°C° 0,1 mm 1 m/s 632 mmHg 56%
    09:00 +20°C° 0,1 mm 1 m/s 633 mmHg 53%
    10:00 +21°C° 0 mm 1 m/s 633 mmHg 52%
    11:00 +21°C° 0 mm 2 m/s 633 mmHg 51%
    12:00 +23°C° 0 mm 2 m/s 633 mmHg 50%
    13:00 +23°C° 0,4 mm 2 m/s 633 mmHg 54%
    14:00 +23°C° 0,4 mm 2 m/s 633 mmHg 57%
    15:00 +23°C° 0,4 mm 2 m/s 633 mmHg 60%
    16:00 +21°C° 0,7 mm 2 m/s 632 mmHg 66%
    17:00 +20°C° 0,7 mm 1 m/s 632 mmHg 73%
    18:00 +19°C° 0,7 mm 1 m/s 632 mmHg 79%
    19:00 +18°C° 0,4 mm 1 m/s 632 mmHg 82%
    20:00 +18°C° 0,4 mm 1 m/s 632 mmHg 85%
    21:00 +16°C° 0,4 mm 1 m/s 632 mmHg 87%
    22:00 +15°C° 0,3 mm 1 m/s 632 mmHg 87%
    23:00 +15°C° 0,3 mm 1 m/s 632 mmHg 87%

    Après-demain, 23 Août, Jeudi

    Heure Température Précipitation Vent Pression Humidité
    00:00 +14°C° 0,3 mm 1 m/s 632 mmHg 86%
    01:00 +14°C° 0 mm 1 m/s 632 mmHg 86%
    02:00 +14°C° 0 mm 1 m/s 632 mmHg 86%
    03:00 +13°C° 0 mm 1 m/s 631 mmHg 86%
    04:00 +14°C° 0 mm 1 m/s 632 mmHg 86%
    05:00 +14°C° 0 mm 1 m/s 632 mmHg 85%
    06:00 +15°C° 0 mm 1 m/s 632 mmHg 84%
    07:00 +16°C° 0 mm 1 m/s 633 mmHg 78%
    08:00 +19°C° 0 mm 1 m/s 634 mmHg 73%
    09:00 +19°C° 0 mm 2 m/s 634 mmHg 67%
    10:00 +20°C° 0,4 mm 2 m/s 634 mmHg 65%
    11:00 +20°C° 0,4 mm 2 m/s 634 mmHg 64%
    12:00 +21°C° 0,4 mm 2 m/s 634 mmHg 62%
    13:00 +21°C° 0,7 mm 2 m/s 634 mmHg 63%
    14:00 +21°C° 0,7 mm 2 m/s 634 mmHg 63%
    15:00 +20°C° 0,7 mm 2 m/s 634 mmHg 64%
    16:00 +20°C° 0,2 mm 2 m/s 634 mmHg 67%
    17:00 +20°C° 0,2 mm 1 m/s 633 mmHg 71%
    18:00 +19°C° 0,2 mm 1 m/s 633 mmHg 75%
    19:00 +18°C° 0 mm 1 m/s 633 mmHg 78%
    20:00 +15°C° 0 mm 1 m/s 633 mmHg 82%
    21:00 +14°C° 0 mm 1 m/s 633 mmHg 86%
    22:00 +14°C° 0 mm 1 m/s 633 mmHg 84%
    23:00 +14°C° 0 mm 1 m/s 633 mmHg 82%

    24 Août, Vendredi

    Heure Température Précipitation Vent Pression Humidité
    00:00 +13°C° 0 mm 1 m/s 633 mmHg 80%
    01:00 +13°C° 0 mm 1 m/s 632 mmHg 79%
    02:00 +13°C° 0 mm 1 m/s 632 mmHg 79%
    03:00 +13°C° 0 mm 1 m/s 632 mmHg 78%
    04:00 +13°C° 0 mm 1 m/s 632 mmHg 78%
    05:00 +13°C° 0 mm 1 m/s 633 mmHg 78%
    06:00 +14°C° 0 mm 1 m/s 633 mmHg 78%
    07:00 +16°C° 0 mm 1 m/s 633 mmHg 72%
    08:00 +18°C° 0 mm 2 m/s 634 mmHg 67%
    09:00 +20°C° 0 mm 2 m/s 635 mmHg 61%
    10:00 +20°C° 0 mm 2 m/s 635 mmHg 61%
    11:00 +21°C° 0 mm 2 m/s 635 mmHg 61%
    12:00 +21°C° 0 mm 2 m/s 635 mmHg 62%
    13:00 +21°C° 0,2 mm 2 m/s 634 mmHg 63%
    14:00 +21°C° 0,2 mm 2 m/s 634 mmHg 65%
    15:00 +20°C° 0,2 mm 2 m/s 634 mmHg 67%
    16:00 +19°C° 0,1 mm 2 m/s 633 mmHg 71%
    17:00 +19°C° 0,1 mm 2 m/s 633 mmHg 74%
    18:00 +18°C° 0,1 mm 2 m/s 633 mmHg 78%
    19:00 +16°C° 0 mm 1 m/s 633 mmHg 80%
    20:00 +15°C° 0 mm 1 m/s 632 mmHg 81%
    21:00 +14°C° 0 mm 1 m/s 632 mmHg 83%
    22:00 +14°C° 0 mm 1 m/s 632 mmHg 81%
    23:00 +13°C° 0 mm 1 m/s 632 mmHg 79%

    25 Août, Samedi

    Heure Température Précipitation Vent Pression Humidité
    00:00 +13°C° 0 mm 1 m/s 632 mmHg 76%
    01:00 +13°C° 0 mm 1 m/s 632 mmHg 76%
    02:00 +13°C° 0 mm 1 m/s 631 mmHg 75%
    03:00 +13°C° 0 mm 1 m/s 631 mmHg 74%
    04:00 +13°C° 0 mm 1 m/s 631 mmHg 74%
    05:00 +13°C° 0 mm 1 m/s 631 mmHg 74%
    06:00 +13°C° 0 mm 1 m/s 632 mmHg 74%
    07:00 +16°C° 0 mm 1 m/s 632 mmHg 68%
    08:00 +18°C° 0 mm 2 m/s 633 mmHg 62%
    09:00 +20°C° 0 mm 2 m/s 634 mmHg 56%
    10:00 +21°C° 0 mm 2 m/s 634 mmHg 55%
    11:00 +23°C° 0 mm 2 m/s 634 mmHg 54%
    12:00 +24°C° 0 mm 3 m/s 634 mmHg 53%
    13:00 +22°C° 0 mm 3 m/s 634 mmHg 55%
    14:00 +22°C° 0 mm 3 m/s 634 mmHg 57%
    15:00 +22°C° 0 mm 3 m/s 633 mmHg 59%
    16:00 +21°C° 0 mm 2 m/s 633 mmHg 63%
    17:00 +19°C° 0 mm 2 m/s 633 mmHg 68%
    18:00 +18°C° 0 mm 2 m/s 632 mmHg 72%
    19:00 +17°C° 0 mm 2 m/s 632 mmHg 74%
    20:00 +16°C° 0 mm 2 m/s 632 mmHg 75%
    21:00 +14°C° 0 mm 2 m/s 631 mmHg 77%
    22:00 +14°C° 0 mm 2 m/s 631 mmHg 74%
    23:00 +14°C° 0 mm 2 m/s 631 mmHg 71%

    26 Août, Dimanche

    Heure Température Précipitation Vent Pression Humidité
    00:00 +14°C° 0 mm 2 m/s 631 mmHg 69%
    01:00 +13°C° 0 mm 2 m/s 631 mmHg 67%
    02:00 +13°C° 0 mm 2 m/s 630 mmHg 66%
    03:00 +13°C° 0 mm 2 m/s 630 mmHg 65%
    04:00 +13°C° 0 mm 2 m/s 630 mmHg 64%
    05:00 +14°C° 0 mm 2 m/s 630 mmHg 64%
    06:00 +14°C° 0 mm 2 m/s 631 mmHg 63%
    07:00 +16°C° 0 mm 2 m/s 631 mmHg 57%
    08:00 +19°C° 0 mm 2 m/s 632 mmHg 51%
    09:00 +23°C° 0 mm 2 m/s 633 mmHg 45%
    10:00 +23°C° 0 mm 2 m/s 633 mmHg 44%
    11:00 +24°C° 0 mm 2 m/s 633 mmHg 43%
    12:00 +25°C° 0 mm 2 m/s 633 mmHg 42%
    13:00 +25°C° 0 mm 2 m/s 632 mmHg 44%
    14:00 +25°C° 0 mm 3 m/s 632 mmHg 45%
    15:00 +25°C° 0 mm 3 m/s 632 mmHg 46%
    16:00 +24°C° 0 mm 2 m/s 631 mmHg 52%
    17:00 +21°C° 0 mm 2 m/s 631 mmHg 58%
    18:00 +19°C° 0 mm 2 m/s 630 mmHg 63%
    19:00 +18°C° 0 mm 2 m/s 630 mmHg 62%
    20:00 +17°C° 0 mm 2 m/s 630 mmHg 62%
    21:00 +15°C° 0 mm 2 m/s 629 mmHg 61%
    22:00 +15°C° 0 mm 2 m/s 629 mmHg 57%
    23:00 +15°C° 0 mm 2 m/s 629 mmHg 53%
    Voir plus